OBJECT A, 55009

Orbit data source: Space-Track

You're viewing an Uncataloged Satellite

Recently launched and/or uncataloged satellites may have evolving metadata. Metadata may include but not limited to: Owner, Maufacturer, Bus, Motor, and Mission.

OBJECT A, 55009 is a satellite in SSO that was launched on Tue, 03 Jan 2023 UTC via an FALCON 9 launch vehicle from the Air Force Eastern Test Range (AFETR). Unknown objects in Earth's orbit typically refer to objects detected orbiting the Earth but have not yet been identified or cataloged. These objects could be anything from previously untracked satellites, spent rocket stages, debris from satellite collisions, or even natural meteoroids temporarily captured by Earth's gravity.

Loading next visibility...
Identifier
55009, 2023-001A
Orbit
SSO
Country
Flag of TBDTBD
Related business
Flag of PLScanway Space (PL)
Manufacturer
German Orb Sys
Mission
Operational Commercial Imaging
Bus & Motor
CUBESAT 6U, Unknown motor
Mass
10 kg wet, ~10 kg dry
Launch date (UTC)
2023-01-03 (3 years ago)
Launch vehicle
FALCON 9
Launch site
Air Force Eastern Test Range (AFETR)
Object type
Unknown
Shape & HBR
Box + 2 Pan, 0.1 m
Radar Cross Section
0.080 m², Medium (>0.1 m² and < 1m²)

Expand to show TLE details & history
Last TLE update: 8 hours ago

TLE from 8 hours ago
0 OBJECT A
1 55009U 23001A   26034.63843020  .00017583  00000-0  46258-3 0  9998
2 55009  97.3366  98.8191 0005142 227.5135 132.5677 15.38614187171664
Epoch: 2026-02-03T15:19Z
TLE epoch observation values (Epoch: 2026-02-03T15:19:20.369Z)
Latitude
0.00005°
Longitude
95.16773°
Altitude
455.701 km
Speed
7.638 km/s
True Right ascension
06h 35m 16s
True Declination
0° 00' 00"
Sunlit
Object was in full shadow at epoch
Visualization orbit readout
Latitude
Unknown
Longitude
Unknown
Altitude
Unknown
Speed
Unknown
Apparent Right ascension
Unknown
Apparent Declination
Unknown
Sunlit
N/A
Visualization observer readout
Local Sidereal Time
01:44:57
Azimuth
Unknown
Elevation
Unknown
Doppler factor
Unknown
Orbital elements
Apogee altitude
450.654 km
Perigee altitude
443.635 km
Semi-major axis
6,825.281 km
Eccentricity
0.00051
Inclination
97.3366°
RAAN
98.8191°
Arg. of periapsis
227.5135°
True anomaly
132.61108°
Mean anomaly
132.5677°
Eccentric anomaly
132.58939°
Mean motion
3.84913 °/min
Orbital period
93.53 mins
BSTAR
0.00046258
Loading maneuver chart data...
Computing Atmospheric mass density...
Loading historical data...
Loading historical data...
Loading historical data...
Loading historical data...
Loading historical data...
Loading historical data...
Loading historical data...

Documentation

Showing up to 5 results
|